Time,TemperatureF,DewpointF,PressureIn,WindDirection,WindDirectionDegrees,WindSpeedMPH,WindSpeedGustMPH,Humidity,HourlyPrecipIn,Conditions,Clouds,dailyrainin,SoftwareType,DateUTC
2013-05-13 00:01:00,59.0,53.0,30.06,SW,223,1.0,-999.0,80,-99.99,,,-99.99,,2013-05-13 07:01:00,
2013-05-13 00:11:00,59.0,53.0,30.06,SW,223,1.0,-999.0,80,-99.99,,,-99.99,,2013-05-13 07:11:00,
2013-05-13 00:21:00,59.0,53.0,30.06,WNW,288,1.0,-999.0,80,-99.99,,,-99.99,,2013-05-13 07:21:00,
2013-05-13 00:31:00,59.0,53.0,30.06,WSW,251,0.0,-999.0,80,-99.99,,,-99.99,,2013-05-13 07:31:00,
2013-05-13 00:41:00,59.0,53.0,30.07,SW,217,0.0,-999.0,81,-99.99,,,-99.99,,2013-05-13 07:41:00,
2013-05-13 00:52:00,59.0,53.0,30.07,SW,217,0.0,-999.0,81,-99.99,,,-99.99,,2013-05-13 07:52:00,
2013-05-13 01:01:00,59.0,53.0,30.07,WSW,242,0.0,-999.0,81,-99.99,,,-99.99,,2013-05-13 08:01:00,
2013-05-13 01:11:00,59.0,53.0,30.07,WSW,242,0.0,-999.0,81,-99.99,,,-99.99,,2013-05-13 08:11:00,
2013-05-13 01:21:00,59.0,53.0,30.07,WNW,297,1.0,-999.0,80,-99.99,,,-99.99,,2013-05-13 08:21:00,
2013-05-13 01:31:00,59.0,53.0,30.08,South,173,1.0,-999.0,80,-99.99,,,-99.99,,2013-05-13 08:31:00,
2013-05-13 01:41:00,59.0,53.0,30.08,South,173,1.0,-999.0,80,-99.99,,,-99.99,,2013-05-13 08:41:00,
2013-05-13 01:52:00,59.0,53.0,30.07,SW,219,0.0,-999.0,80,-99.99,,,-99.99,,2013-05-13 08:52:00,
2013-05-13 02:01:00,59.0,53.0,30.07,SW,219,0.0,-999.0,80,-99.99,,,-99.99,,2013-05-13 09:01:00,
2013-05-13 02:11:00,59.0,53.0,30.07,SW,219,0.0,-999.0,80,-99.99,,,-99.99,,2013-05-13 09:11:00,
2013-05-13 02:21:00,59.0,53.0,30.06,SW,219,0.0,-999.0,81,-99.99,,,-99.99,,2013-05-13 09:21:00,
2013-05-13 02:32:00,59.0,53.0,30.06,SW,219,0.0,-999.0,81,-99.99,,,-99.99,,2013-05-13 09:32:00,
2013-05-13 02:42:00,59.0,53.0,30.06,SW,219,0.0,-999.0,81,-99.99,,,-99.99,,2013-05-13 09:42:00,
2013-05-13 02:52:00,59.0,54.0,30.06,SW,219,0.0,-999.0,82,-99.99,,,-99.99,,2013-05-13 09:52:00,
2013-05-13 03:02:00,59.0,54.0,30.06,SW,219,0.0,-999.0,82,-99.99,,,-99.99,,2013-05-13 10:02:00,
2013-05-13 03:12:00,59.0,54.0,30.06,SW,219,0.0,-999.0,82,-99.99,,,-99.99,,2013-05-13 10:12:00,
2013-05-13 03:22:00,58.0,53.0,30.05,SW,219,0.0,-999.0,82,-99.99,,,-99.99,,2013-05-13 10:22:00,
2013-05-13 03:32:00,58.0,53.0,30.05,SW,218,0.0,-999.0,83,-99.99,,,-99.99,,2013-05-13 10:32:00,
2013-05-13 03:42:00,58.0,53.0,30.05,SW,218,0.0,-999.0,83,-99.99,,,-99.99,,2013-05-13 10:42:00,
2013-05-13 03:52:00,58.0,54.0,30.05,South,180,0.0,-999.0,86,-99.99,,,-99.99,,2013-05-13 10:52:00,
2013-05-13 04:02:00,58.0,54.0,30.05,South,180,0.0,-999.0,86,-99.99,,,-99.99,,2013-05-13 11:02:00,
2013-05-13 04:12:00,58.0,54.0,30.05,South,180,0.0,-999.0,86,-99.99,,,-99.99,,2013-05-13 11:12:00,
2013-05-13 04:21:00,57.0,53.0,30.05,South,180,0.0,-999.0,87,-99.99,,,-99.99,,2013-05-13 11:21:00,
2013-05-13 04:32:00,57.0,53.0,30.05,South,180,0.0,-999.0,88,-99.99,,,-99.99,,2013-05-13 11:32:00,
2013-05-13 04:41:00,57.0,53.0,30.05,South,180,0.0,-999.0,88,-99.99,,,-99.99,,2013-05-13 11:41:00,
2013-05-13 04:52:00,57.0,54.0,30.05,South,180,0.0,-999.0,89,-99.99,,,-99.99,,2013-05-13 11:52:00,
2013-05-13 05:01:00,57.0,54.0,30.05,South,180,0.0,-999.0,90,-99.99,,,-99.99,,2013-05-13 12:01:00,
2013-05-13 05:11:00,57.0,54.0,30.05,South,180,0.0,-999.0,90,-99.99,,,-99.99,,2013-05-13 12:11:00,
2013-05-13 05:21:00,57.0,54.0,30.04,SSE,157,0.0,-999.0,91,-99.99,,,-99.99,,2013-05-13 12:21:00,
2013-05-13 05:32:00,57.0,54.0,30.04,SSE,161,1.0,-999.0,91,-99.99,,,-99.99,,2013-05-13 12:32:00,
2013-05-13 05:41:00,57.0,54.0,30.04,SSE,161,1.0,-999.0,91,-99.99,,,-99.99,,2013-05-13 12:41:00,
2013-05-13 05:52:00,57.0,54.0,30.04,SSE,160,0.0,-999.0,91,-99.99,,,-99.99,,2013-05-13 12:52:00,
2013-05-13 06:01:00,56.0,53.0,30.04,ESE,113,0.0,-999.0,91,-99.99,,,-99.99,,2013-05-13 13:01:00,
2013-05-13 06:11:00,56.0,53.0,30.04,ESE,113,0.0,-999.0,91,-99.99,,,-99.99,,2013-05-13 13:11:00,
2013-05-13 06:21:00,56.0,53.0,30.04,SW,217,0.0,-999.0,90,-99.99,,,-99.99,,2013-05-13 13:21:00,
2013-05-13 06:31:00,56.0,53.0,30.04,SW,232,0.0,-999.0,90,-99.99,,,-99.99,,2013-05-13 13:31:00,
2013-05-13 06:41:00,56.0,53.0,30.05,SW,232,0.0,-999.0,89,-99.99,,,-99.99,,2013-05-13 13:41:00,
2013-05-13 06:52:00,56.0,53.0,30.05,SW,232,0.0,-999.0,89,-99.99,,,-99.99,,2013-05-13 13:52:00,
2013-05-13 07:01:00,56.0,53.0,30.05,SW,232,0.0,-999.0,89,-99.99,,,-99.99,,2013-05-13 14:01:00,
2013-05-13 07:11:00,56.0,53.0,30.05,SW,232,0.0,-999.0,89,-99.99,,,-99.99,,2013-05-13 14:11:00,
2013-05-13 07:22:00,57.0,53.0,30.04,SSW,196,0.0,-999.0,88,-99.99,,,-99.99,,2013-05-13 14:22:00,
2013-05-13 07:31:00,57.0,53.0,30.05,SSW,196,0.0,-999.0,88,-99.99,,,-99.99,,2013-05-13 14:31:00,
2013-05-13 07:41:00,57.0,53.0,30.05,SSW,196,0.0,-999.0,88,-99.99,,,-99.99,,2013-05-13 14:41:00,
2013-05-13 07:51:00,57.0,53.0,30.05,SSW,196,0.0,-999.0,87,-99.99,,,-99.99,,2013-05-13 14:51:00,
2013-05-13 08:01:00,57.0,53.0,30.05,SSW,194,1.0,-999.0,86,-99.99,,,-99.99,,2013-05-13 15:01:00,
2013-05-13 08:11:00,57.0,53.0,30.05,SSW,194,1.0,-999.0,86,-99.99,,,-99.99,,2013-05-13 15:11:00,
2013-05-13 08:21:00,57.0,53.0,30.05,South,175,0.0,-999.0,86,-99.99,,,-99.99,,2013-05-13 15:21:00,
2013-05-13 08:31:00,57.0,53.0,30.05,SSW,212,1.0,-999.0,85,-99.99,,,-99.99,,2013-05-13 15:31:00,
2013-05-13 08:42:00,57.0,53.0,30.05,SSW,212,1.0,-999.0,85,-99.99,,,-99.99,,2013-05-13 15:42:00,
2013-05-13 08:53:00,58.0,54.0,30.06,SSE,165,0.0,-999.0,85,-99.99,,,-99.99,,2013-05-13 15:53:00,
2013-05-13 09:03:00,58.0,54.0,30.05,SSE,166,1.0,-999.0,85,-99.99,,,-99.99,,2013-05-13 16:03:00,
2013-05-13 09:11:00,58.0,54.0,30.05,SSE,166,1.0,-999.0,85,-99.99,,,-99.99,,2013-05-13 16:11:00,
2013-05-13 09:21:00,58.0,54.0,30.05,SSE,165,2.0,-999.0,85,-99.99,,,-99.99,,2013-05-13 16:21:00,
2013-05-13 09:33:00,58.0,54.0,30.05,South,169,1.0,-999.0,86,-99.99,,,-99.99,,2013-05-13 16:33:00,
2013-05-13 09:42:00,59.0,54.0,30.06,SSE,157,1.0,-999.0,84,-99.99,,,-99.99,,2013-05-13 16:42:00,
2013-05-13 09:52:00,59.0,54.0,30.06,SSE,157,1.0,-999.0,84,-99.99,,,-99.99,,2013-05-13 16:52:00,
2013-05-13 10:02:00,59.0,54.0,30.05,SSE,165,2.0,-999.0,83,-99.99,,,-99.99,,2013-05-13 17:02:00,
2013-05-13 10:11:00,59.0,54.0,30.05,SSE,165,2.0,-999.0,83,-99.99,,,-99.99,,2013-05-13 17:11:00,
2013-05-13 10:21:00,60.0,54.0,30.05,South,178,2.0,-999.0,81,-99.99,,,-99.99,,2013-05-13 17:21:00,
2013-05-13 10:32:00,60.0,54.0,30.05,South,170,3.0,-999.0,80,-99.99,,,-99.99,,2013-05-13 17:32:00,
2013-05-13 10:41:00,60.0,53.0,30.04,SE,146,2.0,-999.0,79,-99.99,,,-99.99,,2013-05-13 17:41:00,
2013-05-13 10:54:00,60.0,53.0,30.04,SE,146,2.0,-999.0,79,-99.99,,,-99.99,,2013-05-13 17:54:00,
2013-05-13 11:03:00,60.0,53.0,30.04,SSW,201,4.0,-999.0,79,-99.99,,,-99.99,,2013-05-13 18:03:00,
2013-05-13 11:12:00,60.0,53.0,30.04,SSW,201,4.0,-999.0,79,-99.99,,,-99.99,,2013-05-13 18:12:00,
2013-05-13 11:22:00,61.0,54.0,30.06,SE,144,4.0,-999.0,77,-99.99,,,-99.99,,2013-05-13 18:22:00,
2013-05-13 11:32:00,61.0,53.0,30.06,SSW,196,2.0,-999.0,76,-99.99,,,-99.99,,2013-05-13 18:32:00,
2013-05-13 11:42:00,62.0,54.0,30.06,SE,144,2.0,-999.0,76,-99.99,,,-99.99,,2013-05-13 18:42:00,
2013-05-13 11:51:00,62.0,54.0,30.06,SE,144,2.0,-999.0,76,-99.99,,,-99.99,,2013-05-13 18:51:00,
2013-05-13 12:01:00,63.0,54.0,30.07,South,182,2.0,-999.0,73,-99.99,,,-99.99,,2013-05-13 19:01:00,
2013-05-13 12:11:00,63.0,54.0,30.07,South,182,2.0,-999.0,73,-99.99,,,-99.99,,2013-05-13 19:11:00,
2013-05-13 12:21:00,66.0,50.0,30.06,SSE,153,4.0,-999.0,57,-99.99,,,-99.99,,2013-05-13 19:21:00,
2013-05-13 12:32:00,67.0,51.0,30.07,NW,309,6.0,-999.0,56,-99.99,,,-99.99,,2013-05-13 19:32:00,
2013-05-13 12:43:00,69.0,51.0,30.07,SSW,197,4.0,-999.0,53,-99.99,,,-99.99,,2013-05-13 19:43:00,
2013-05-13 12:53:00,69.0,51.0,30.07,SSW,197,4.0,-999.0,53,-99.99,,,-99.99,,2013-05-13 19:53:00,
2013-05-13 13:01:00,69.0,51.0,30.07,WSW,252,6.0,-999.0,52,-99.99,,,-99.99,,2013-05-13 20:01:00,
2013-05-13 13:11:00,69.0,51.0,30.07,WSW,252,6.0,-999.0,52,-99.99,,,-99.99,,2013-05-13 20:11:00,
2013-05-13 13:23:00,70.0,52.0,30.08,WSW,238,6.0,-999.0,52,-99.99,,,-99.99,,2013-05-13 20:23:00,
2013-05-13 13:33:00,69.0,51.0,30.09,West,260,4.0,-999.0,53,-99.99,,,-99.99,,2013-05-13 20:33:00,
2013-05-13 13:44:00,69.0,51.0,30.09,West,260,4.0,-999.0,53,-99.99,,,-99.99,,2013-05-13 20:44:00,
2013-05-13 13:53:00,68.0,51.0,30.10,West,275,4.0,-999.0,54,-99.99,,,-99.99,,2013-05-13 20:53:00,
2013-05-13 14:02:00,68.0,52.0,30.11,South,188,4.0,-999.0,56,-99.99,,,-99.99,,2013-05-13 21:02:00,
2013-05-13 14:14:00,68.0,52.0,30.11,South,188,4.0,-999.0,56,-99.99,,,-99.99,,2013-05-13 21:14:00,
2013-05-13 14:22:00,66.0,52.0,30.12,WNW,297,5.0,-999.0,60,-99.99,,,-99.99,,2013-05-13 21:22:00,
2013-05-13 14:33:00,64.0,52.0,30.12,WNW,283,3.0,-999.0,65,-99.99,,,-99.99,,2013-05-13 21:33:00,
2013-05-13 14:43:00,64.0,52.0,30.12,WNW,283,3.0,-999.0,65,-99.99,,,-99.99,,2013-05-13 21:43:00,
2013-05-13 14:53:00,64.0,51.0,30.13,WNW,284,3.0,-999.0,63,-99.99,,,-99.99,,2013-05-13 21:53:00,
2013-05-13 15:02:00,65.0,52.0,30.13,SW,214,3.0,-999.0,62,-99.99,,,-99.99,,2013-05-13 22:02:00,
2013-05-13 15:12:00,65.0,52.0,30.13,SW,214,3.0,-999.0,62,-99.99,,,-99.99,,2013-05-13 22:12:00,
2013-05-13 15:22:00,64.0,52.0,30.13,SE,130,4.0,-999.0,65,-99.99,,,-99.99,,2013-05-13 22:22:00,
2013-05-13 15:32:00,63.0,49.0,30.14,SW,236,5.0,-999.0,60,-99.99,,,-99.99,,2013-05-13 22:32:00,
2013-05-13 15:42:00,65.0,50.0,30.14,SW,222,4.0,-999.0,58,-99.99,,,-99.99,,2013-05-13 22:42:00,
2013-05-13 15:52:00,65.0,50.0,30.14,SW,222,4.0,-999.0,58,-99.99,,,-99.99,,2013-05-13 22:52:00,
2013-05-13 16:01:00,65.0,50.0,30.14,South,185,4.0,-999.0,58,-99.99,,,-99.99,,2013-05-13 23:01:00,
2013-05-13 16:12:00,65.0,50.0,30.14,South,185,4.0,-999.0,58,-99.99,,,-99.99,,2013-05-13 23:12:00,
2013-05-13 16:23:00,65.0,48.0,30.14,West,261,4.0,-999.0,54,-99.99,,,-99.99,,2013-05-13 23:23:00,
2013-05-13 16:33:00,65.0,49.0,30.15,South,178,3.0,-999.0,57,-99.99,,,-99.99,,2013-05-13 23:33:00,
2013-05-13 16:42:00,65.0,49.0,30.15,South,178,3.0,-999.0,57,-99.99,,,-99.99,,2013-05-13 23:42:00,
2013-05-13 16:54:00,64.0,48.0,30.15,SSE,165,2.0,-999.0,57,-99.99,,,-99.99,,2013-05-13 23:54:00,
2013-05-13 17:02:00,64.0,49.0,30.16,WSW,248,2.0,-999.0,59,-99.99,,,-99.99,,2013-05-14 00:02:00,
2013-05-13 17:12:00,63.0,49.0,30.16,SSW,209,1.0,-999.0,61,-99.99,,,-99.99,,2013-05-14 00:12:00,
2013-05-13 17:22:00,63.0,49.0,30.16,SSW,209,1.0,-999.0,61,-99.99,,,-99.99,,2013-05-14 00:22:00,
2013-05-13 17:31:00,64.0,49.0,30.16,SSW,206,2.0,-999.0,59,-99.99,,,-99.99,,2013-05-14 00:31:00,
2013-05-13 17:41:00,64.0,49.0,30.16,SSW,206,2.0,-999.0,59,-99.99,,,-99.99,,2013-05-14 00:41:00,
2013-05-13 17:51:00,64.0,49.0,30.16,NNW,342,1.0,-999.0,58,-99.99,,,-99.99,,2013-05-14 00:51:00,
2013-05-13 18:01:00,64.0,49.0,30.16,WNW,298,3.0,-999.0,58,-99.99,,,-99.99,,2013-05-14 01:01:00,
2013-05-13 18:11:00,64.0,49.0,30.16,WNW,298,3.0,-999.0,58,-99.99,,,-99.99,,2013-05-14 01:11:00,
2013-05-13 18:21:00,63.0,50.0,30.17,West,279,2.0,-999.0,62,-99.99,,,-99.99,,2013-05-14 01:21:00,
2013-05-13 18:31:00,62.0,48.0,30.16,NNW,331,2.0,-999.0,61,-99.99,,,-99.99,,2013-05-14 01:31:00,
2013-05-13 18:43:00,62.0,48.0,30.16,NNW,331,2.0,-999.0,61,-99.99,,,-99.99,,2013-05-14 01:43:00,
2013-05-13 18:53:00,62.0,48.0,30.16,WNW,286,2.0,-999.0,60,-99.99,,,-99.99,,2013-05-14 01:53:00,
2013-05-13 19:01:00,62.0,48.0,30.16,WNW,293,2.0,-999.0,61,-99.99,,,-99.99,,2013-05-14 02:01:00,
2013-05-13 19:11:00,61.0,48.0,30.17,WSW,248,2.0,-999.0,62,-99.99,,,-99.99,,2013-05-14 02:11:00,
2013-05-13 19:21:00,61.0,48.0,30.17,WSW,248,2.0,-999.0,62,-99.99,,,-99.99,,2013-05-14 02:21:00,
2013-05-13 19:31:00,61.0,48.0,30.17,WNW,297,1.0,-999.0,63,-99.99,,,-99.99,,2013-05-14 02:31:00,
2013-05-13 19:42:00,61.0,48.0,30.17,WNW,297,1.0,-999.0,63,-99.99,,,-99.99,,2013-05-14 02:42:00,
2013-05-13 19:52:00,60.0,47.0,30.17,WSW,248,2.0,-999.0,62,-99.99,,,-99.99,,2013-05-14 02:52:00,
2013-05-13 20:01:00,60.0,47.0,30.17,NW,310,1.0,-999.0,62,-99.99,,,-99.99,,2013-05-14 03:01:00,
2013-05-13 20:11:00,60.0,47.0,30.17,NW,310,1.0,-999.0,62,-99.99,,,-99.99,,2013-05-14 03:11:00,
2013-05-13 20:21:00,59.0,47.0,30.17,WSW,240,0.0,-999.0,64,-99.99,,,-99.99,,2013-05-14 03:21:00,
2013-05-13 20:32:00,59.0,47.0,30.17,WNW,298,0.0,-999.0,65,-99.99,,,-99.99,,2013-05-14 03:32:00,
2013-05-13 20:42:00,59.0,47.0,30.17,WNW,298,0.0,-999.0,65,-99.99,,,-99.99,,2013-05-14 03:42:00,
2013-05-13 20:53:00,58.0,47.0,30.17,WNW,292,0.0,-999.0,68,-99.99,,,-99.99,,2013-05-14 03:53:00,
2013-05-13 21:02:00,57.0,47.0,30.17,WNW,294,0.0,-999.0,68,-99.99,,,-99.99,,2013-05-14 04:02:00,
2013-05-13 21:12:00,57.0,47.0,30.17,WNW,294,0.0,-999.0,68,-99.99,,,-99.99,,2013-05-14 04:12:00,
2013-05-13 21:22:00,56.0,47.0,30.17,WNW,294,0.0,-999.0,71,-99.99,,,-99.99,,2013-05-14 04:22:00,
2013-05-13 21:32:00,55.0,46.0,30.18,WNW,299,0.0,-999.0,72,-99.99,,,-99.99,,2013-05-14 04:32:00,
2013-05-13 21:42:00,55.0,46.0,30.18,WNW,299,0.0,-999.0,72,-99.99,,,-99.99,,2013-05-14 04:42:00,
2013-05-13 21:53:00,54.0,46.0,30.19,WNW,291,0.0,-999.0,75,-99.99,,,-99.99,,2013-05-14 04:53:00,
2013-05-13 22:01:00,54.0,47.0,30.19,West,263,0.0,-999.0,76,-99.99,,,-99.99,,2013-05-14 05:01:00,
2013-05-13 22:12:00,54.0,47.0,30.19,West,263,0.0,-999.0,76,-99.99,,,-99.99,,2013-05-14 05:12:00,
2013-05-13 22:21:00,54.0,47.0,30.19,West,277,0.0,-999.0,77,-99.99,,,-99.99,,2013-05-14 05:21:00,
2013-05-13 22:32:00,53.0,46.0,30.19,West,276,0.0,-999.0,78,-99.99,,,-99.99,,2013-05-14 05:32:00,
2013-05-13 22:42:00,53.0,47.0,30.20,West,277,0.0,-999.0,79,-99.99,,,-99.99,,2013-05-14 05:42:00,
2013-05-13 22:52:00,53.0,47.0,30.20,West,277,0.0,-999.0,79,-99.99,,,-99.99,,2013-05-14 05:52:00,
2013-05-13 23:01:00,52.0,46.0,30.19,West,277,0.0,-999.0,79,-99.99,,,-99.99,,2013-05-14 06:01:00,
2013-05-13 23:12:00,52.0,46.0,30.19,West,277,0.0,-999.0,79,-99.99,,,-99.99,,2013-05-14 06:12:00,
2013-05-13 23:21:00,51.0,45.0,30.19,SW,225,0.0,-999.0,81,-99.99,,,-99.99,,2013-05-14 06:21:00,
2013-05-13 23:31:00,51.0,46.0,30.19,WSW,239,0.0,-999.0,83,-99.99,,,-99.99,,2013-05-14 06:31:00,
2013-05-13 23:42:00,51.0,46.0,30.19,WSW,239,0.0,-999.0,83,-99.99,,,-99.99,,2013-05-14 06:42:00,
2013-05-13 23:52:00,51.0,46.0,30.19,WNW,282,0.0,-999.0,84,-99.99,,,-99.99,,2013-05-14 06:52:00,